Tracking 29892 objects as of 21-Nov-2024
HD Live streaming from Space Station
objects crossing your sky now

STARLINK-1793

Track STARLINK-1793 now!
10-day predictions
STARLINK-1793 is classified as:


NORAD ID: 46694
Int'l Code: 2020-073AA
Perigee: 553.4 km
Apogee: 555.2 km
Inclination: 53.1 °
Period: 95.6 minutes
Semi major axis: 6925 km
RCS: Unknown
Launch date: October 18, 2020
Source: United States (US)
Launch site: AIR FORCE EASTERN TEST RANGE (AFETR)
Your satellite tracking list
Your tracking list is empty




NASA's NSSDC Master Catalog

Two Line Element Set (TLE):
1 46694U 20073AA  24325.66229201  .00004891  00000-0  34680-3 0  9991
2 46694  53.0526 189.6117 0001319  77.0314 283.0822 15.06420830225969
Source of the keplerian elements: AFSPC